Stations météo

Publicité
Saarbrücken-Ensheim, Allemagne (10708): Température de l'air & dewpoint: 06.07.2020 11:00:00 - 12.07.2020 11:00:00 (CEST)Saarbrücken-Ensheim, Allemagne (10708): Température de l'air 5cm & Température de l'air -5cm: 06.07.2020 11:00:00 - 12.07.2020 11:00:00 (CEST)Saarbrücken-Ensheim, Allemagne (10708): Température de l'air -20cm & Température de l'air -100cm: 06.07.2020 11:00:00 - 12.07.2020 11:00:00 (CEST)Saarbrücken-Ensheim, Allemagne (10708): Vitesse du vent & gusts: 06.07.2020 11:00:00 - 12.07.2020 11:00:00 (CEST)Saarbrücken-Ensheim, Allemagne (10708): Direction du vent: 06.07.2020 11:00:00 - 12.07.2020 11:00:00 (CEST)Saarbrücken-Ensheim, Allemagne (10708): reduced air pressure: 06.07.2020 11:00:00 - 12.07.2020 11:00:00 (CEST)Saarbrücken-Ensheim, Allemagne (10708): visibility: 06.07.2020 11:00:00 - 12.07.2020 11:00:00 (CEST)Saarbrücken-Ensheim, Allemagne (10708): Ensoleillement: 06.07.2020 11:00:00 - 12.07.2020 11:00:00 (CEST)Saarbrücken-Ensheim, Allemagne (10708): Quantités de précipitations: 06.07.2020 11:00:00 - 12.07.2020 11:00:00 (CEST)
Date & Time tt [°C] td [°C] tt 5cm [°C] tt -5cm [°C] tt -20cm [°C] tt -100cm [°C] ff [km/h] ff [knt] fx [km/h] fx [knt] dd ppp [hPa] vv [km] sd [min] rr [mm]
12.07.2020 11:00:00 20,0 7,0 - - - - 13 7 - - ENE - 10 - -
12.07.2020 10:00:00 17,6 7,5 21,8 22,1 20,4 19,0 15 8 23 13 NE 1026,0 10 60 0,0
12.07.2020 09:00:00 15,6 7,7 18,4 19,3 20,3 19,0 15 8 27 14 NE 1026,2 10 60 0,0
12.07.2020 08:00:00 13,6 7,4 15,2 17,2 20,4 19,0 15 8 23 12 NE 1026,3 10 60 0,0
12.07.2020 07:00:00 12,1 7,2 12,0 16,1 20,8 19,0 15 8 26 14 NE 1026,2 10 55 0,0
12.07.2020 06:00:00 10,0 6,7 8,1 16,3 21,2 19,0 11 6 22 12 ENE 1026,1 60 0 0,0
12.07.2020 05:00:00 11,7 6,9 10,1 17,0 21,7 18,9 16 9 28 15 NE 1025,6 60 0 0,0
12.07.2020 04:00:00 12,8 6,8 11,5 17,6 22,1 19,0 17 9 26 14 NE 1025,4 60 0 0,0
12.07.2020 03:00:00 13,0 6,5 11,5 18,3 22,6 18,9 16 9 27 15 NE 1025,7 60 0 0,0
12.07.2020 02:00:00 14,2 5,9 12,9 19,0 23,2 19,0 15 8 24 13 NNE 1025,6 10 0 0,0
12.07.2020 01:00:00 13,5 5,5 10,6 19,9 23,8 19,0 11 6 16 9 NE 1025,7 10 0 0,0
12.07.2020 00:00:00 15,6 5,4 13,1 21,1 24,4 19,0 9 5 15 8 NNE 1025,3 10 0 0,0
11.07.2020 23:00:00 16,0 5,4 13,9 22,5 25,0 19,0 9 5 16 9 NNE 1025,0 10 0 0,0
11.07.2020 22:00:00 17,6 5,5 15,7 24,3 25,6 19,0 9 5 18 10 NNE 1024,5 60 14 0,0
11.07.2020 21:00:00 18,9 5,6 18,2 26,2 26,1 19,0 6 3 13 7 NE 1024,0 60 45 0,0
11.07.2020 20:00:00 19,9 5,1 20,2 28,3 26,5 19,0 9 5 22 12 N 1023,6 60 49 0,0
11.07.2020 19:00:00 21,2 5,2 25,2 31,0 26,5 19,0 13 7 24 13 N 1023,0 60 44 0,0
11.07.2020 18:00:00 20,4 4,2 23,8 32,8 26,2 19,0 8 4 24 13 N 1023,2 10 37 0,0
11.07.2020 17:00:00 21,2 4,6 28,2 34,5 25,5 19,0 13 7 28 15 W 1023,0 60 55 0,0
11.07.2020 16:00:00 21,5 4,3 30,7 33,9 24,7 19,0 11 6 23 13 WNW 1023,0 10 54 0,0
11.07.2020 15:00:00 19,7 5,1 25,7 32,4 23,9 19,0 16 9 28 15 NNW 1023,2 10 42 0,0
11.07.2020 14:00:00 19,9 5,2 29,3 31,0 23,1 19,0 9 5 35 19 - 1023,1 10 40 0,0
11.07.2020 13:00:00 19,7 6,3 28,6 30,2 22,2 18,9 15 8 22 12 N 1023,3 10 49 0,0
11.07.2020 12:00:00 18,2 6,0 27,5 27,9 21,3 18,9 11 6 21 11 NNW 1023,2 10 50 0,0
11.07.2020 11:00:00 17,8 7,2 25,9 24,8 20,7 18,9 9 5 22 12 NW 1022,9 50 49 0,0
11.07.2020 10:00:00 15,9 7,7 19,4 22,8 20,2 18,9 9 5 16 9 NE 1023,1 50 55 0,0
11.07.2020 09:00:00 15,7 9,0 20,5 20,1 20,1 18,9 9 5 16 8 N 1022,7 50 60 0,0
11.07.2020 08:00:00 14,1 9,6 16,5 17,6 20,2 18,9 11 6 21 11 NNE 1022,4 10 60 0,0
11.07.2020 07:00:00 12,9 9,6 13,4 16,4 20,5 18,9 12 6 16 9 N 1022,0 50 55 0,0
11.07.2020 06:00:00 12,0 9,1 9,1 16,6 20,9 18,9 9 5 16 9 NNE 1021,5 10 0 0,0
11.07.2020 05:00:00 12,1 9,2 9,4 17,4 21,2 18,9 11 6 17 9 N 1021,0 10 0 0,0
11.07.2020 04:00:00 13,2 9,7 10,5 18,4 21,5 18,9 9 5 16 9 N 1020,7 10 0 0,0
11.07.2020 03:00:00 14,9 10,1 14,0 18,9 21,8 18,9 8 4 16 9 N 1020,6 10 0 0,0
11.07.2020 02:00:00 15,2 10,0 13,5 19,5 22,2 18,9 13 7 26 14 N 1019,9 10 0 0,0
11.07.2020 01:00:00 16,0 10,8 15,6 19,9 22,5 18,9 11 6 24 13 NNE 1019,3 10 0 0,0
11.07.2020 00:00:00 17,0 10,9 16,4 20,6 22,8 18,9 15 8 23 13 NNE 1018,6 50 0 0,0
10.07.2020 23:00:00 17,1 11,2 16,3 21,2 23,1 18,9 8 4 13 7 NW 1017,6 50 0 0,0
10.07.2020 22:00:00 17,6 11,3 16,4 22,2 23,4 18,9 9 5 15 8 WNW 1016,9 10 0 0,0
10.07.2020 21:00:00 18,6 12,0 18,3 23,3 23,6 18,9 9 5 18 10 WNW 1016,5 10 0 0,0
10.07.2020 20:00:00 19,2 11,5 19,7 24,0 23,8 18,9 9 5 27 14 W 1016,0 10 0 0,0
10.07.2020 19:00:00 20,0 11,5 21,3 24,9 23,9 18,9 19 10 34 18 WNW 1015,6 50 0 0,0
10.07.2020 18:00:00 19,7 12,0 20,6 25,8 23,8 18,9 21 11 34 18 WNW 1015,5 10 0 0,0
10.07.2020 17:00:00 21,3 11,9 25,0 27,2 23,5 18,9 22 12 38 20 W 1014,8 10 10 0,0
10.07.2020 16:00:00 20,4 12,5 23,8 26,5 23,3 18,9 21 11 31 17 W 1015,2 10 13 0,0
10.07.2020 15:00:00 20,1 12,8 22,8 24,7 23,1 18,8 21 11 37 20 W 1015,1 10 0 0,0
10.07.2020 14:00:00 19,8 12,5 23,0 24,8 23,0 18,8 24 13 36 20 W 1014,8 50 0 0,0
10.07.2020 13:00:00 19,7 13,0 22,6 24,4 22,8 18,8 22 12 39 21 W 1014,4 10 0 0,0
10.07.2020 12:00:00 18,8 13,0 20,2 24,1 22,6 18,8 28 15 39 21 WSW 1013,9 50 1 0,0
10.07.2020 11:00:00 19,0 13,3 22,1 23,6 22,4 18,8 27 14 38 21 W 1013,2 60 0 0,0
10.07.2020 10:00:00 19,2 13,7 21,4 23,8 22,2 18,8 26 14 39 21 WSW 1012,5 10 28 0,0
10.07.2020 09:00:00 18,8 13,9 21,5 21,6 22,1 18,8 18 10 27 15 W 1012,1 60 12 0,0
10.07.2020 08:00:00 18,4 13,3 19,2 20,8 22,3 18,8 21 11 29 16 WSW 1011,6 10 46 0,0
10.07.2020 07:00:00 17,6 12,6 16,6 19,7 22,6 18,8 13 7 19 10 SW 1011,2 60 18 0,0
10.07.2020 06:00:00 18,6 12,4 16,5 20,0 22,9 18,8 11 6 21 11 SSW 1010,7 50 0 0,0
10.07.2020 05:00:00 19,5 12,4 17,1 20,4 23,3 18,8 13 7 21 11 SSW 1010,3 10 0 0,0
10.07.2020 04:00:00 19,4 12,5 17,0 21,0 23,6 18,8 13 7 22 12 SW 1011,0 10 0 0,0
10.07.2020 03:00:00 20,3 12,1 17,6 21,4 24,1 18,8 15 8 23 12 SSW 1011,0 10 0 0,0
10.07.2020 02:00:00 21,0 11,9 17,9 21,9 24,6 18,8 13 7 18 10 S 1011,4 10 0 0,0
10.07.2020 01:00:00 20,4 12,2 14,7 22,7 25,1 18,8 4 2 8 4 SSE 1012,0 50 0 0,0
10.07.2020 00:00:00 20,5 12,8 15,4 23,8 25,7 18,8 6 3 8 4 SE 1012,1 15 0 0,0
09.07.2020 23:00:00 21,1 12,1 16,7 25,1 26,3 18,8 4 2 8 4 SSE 1012,4 50 0 0,0
09.07.2020 22:00:00 22,4 11,7 17,7 26,7 26,8 18,8 5 3 18 10 WSW 1012,3 10 0 0,0
09.07.2020 21:00:00 25,5 11,0 24,0 28,6 27,2 18,8 15 8 28 15 W 1011,9 10 49 0,0
09.07.2020 20:00:00 27,3 11,6 27,0 30,6 27,5 18,8 22 12 35 19 W 1011,8 60 60 0,0
09.07.2020 19:00:00 27,9 11,6 30,3 33,1 27,4 18,8 24 13 38 21 WSW 1011,9 10 58 0,0
09.07.2020 18:00:00 28,2 12,0 32,0 34,6 27,1 18,8 21 11 41 22 WSW 1012,3 60 56 0,0
09.07.2020 17:00:00 28,6 11,9 34,1 35,6 26,5 18,8 27 15 49 27 WSW 1013,0 60 59 0,0
09.07.2020 16:00:00 28,1 11,9 34,3 35,6 25,6 18,8 26 14 46 25 WSW 1013,3 10 56 0,0
09.07.2020 15:00:00 27,2 12,7 34,5 35,1 24,7 18,8 26 14 38 20 SW 1013,8 50 52 0,0
09.07.2020 14:00:00 27,1 14,6 34,3 33,8 23,8 18,8 19 10 39 21 W 1014,3 50 53 0,0
09.07.2020 13:00:00 25,2 14,1 31,9 31,2 23,0 18,8 16 9 31 17 SW 1015,0 10 44 0,0
09.07.2020 12:00:00 24,2 14,5 30,4 30,4 22,0 18,8 23 12 37 20 SW 1015,2 50 53 0,0
09.07.2020 11:00:00 22,9 15,5 31,0 28,1 21,2 18,8 14 8 29 16 WSW 1015,6 50 57 0,0
09.07.2020 10:00:00 21,0 15,0 27,3 24,9 20,6 18,8 11 6 22 12 SSW 1016,0 10 60 0,0
09.07.2020 09:00:00 20,2 15,7 24,9 21,0 20,4 18,8 9 5 15 8 SW 1016,3 10 32 0,0
09.07.2020 08:00:00 17,8 14,4 19,3 19,0 20,5 18,8 5 3 11 6 SW 1016,9 10 4 0,0
09.07.2020 07:00:00 16,8 14,0 16,3 18,3 20,6 18,8 2 1 4 2 - 1016,8 10 0 0,0
09.07.2020 06:00:00 15,5 13,9 13,7 18,5 20,8 18,8 2 1 8 4 - 1017,0 10 0 0,0
09.07.2020 05:00:00 15,5 13,8 14,5 18,5 21,0 18,8 3 2 4 2 SW 1017,0 50 0 0,0
09.07.2020 04:00:00 15,1 13,4 13,6 18,6 21,3 18,8 2 1 5 3 S 1017,0 50 0 0,0
09.07.2020 03:00:00 15,0 13,5 13,8 19,1 21,6 18,8 2 1 4 2 - 1017,3 10 0 0,0
09.07.2020 02:00:00 14,8 13,3 13,4 19,4 22,0 18,8 2 1 5 3 - 1017,7 10 0 0,0
09.07.2020 01:00:00 15,6 13,7 12,8 20,3 22,3 18,8 0 0 4 2 N 1017,7 10 0 0,0
09.07.2020 00:00:00 17,2 14,0 15,0 21,4 22,6 18,8 3 2 8 4 E 1017,8 50 0 0,0
08.07.2020 23:00:00 18,2 14,0 17,6 22,0 22,8 18,8 4 2 11 6 - 1017,7 10 0 0,0
08.07.2020 22:00:00 19,0 13,9 18,8 22,8 23,1 18,8 8 4 13 7 N 1017,2 10 0 0,0
08.07.2020 21:00:00 19,9 14,2 20,1 23,9 23,2 18,8 9 5 11 6 N 1016,8 10 0 0,0
08.07.2020 20:00:00 21,6 13,4 22,7 24,6 23,3 18,8 8 4 16 9 WNW 1016,2 10 0 0,0
08.07.2020 19:00:00 21,7 12,2 23,1 24,9 23,4 18,8 13 7 26 14 WNW 1016,2 10 0 0,0
08.07.2020 18:00:00 21,8 10,9 22,6 25,8 23,3 18,8 16 9 34 18 W 1016,2 50 0 0,0
08.07.2020 17:00:00 22,8 11,2 26,2 27,1 23,0 18,8 21 11 31 17 W 1016,1 10 2 0,0
08.07.2020 16:00:00 22,5 10,8 27,2 26,3 22,8 18,8 13 7 31 17 WNW 1016,0 50 0 0,0
08.07.2020 15:00:00 21,5 10,4 23,6 27,2 22,4 18,8 16 9 35 19 W 1016,2 10 0 0,0
08.07.2020 14:00:00 21,8 10,5 26,7 27,3 21,8 18,8 24 13 41 22 W 1016,2 50 19 0,0
08.07.2020 13:00:00 20,4 9,6 25,2 25,0 21,3 18,8 20 11 35 19 W 1016,7 50 7 0,0
08.07.2020 12:00:00 19,5 9,8 23,5 24,4 20,7 18,8 22 12 36 19 WSW 1017,0 10 4 0,0
08.07.2020 11:00:00 18,9 11,2 25,8 23,3 20,2 18,8 21 11 29 16 SW 1017,2 10 35 0,0
08.07.2020 10:00:00 16,4 9,7 20,3 21,0 19,9 18,8 13 7 18 10 W 1017,4 10 33 0,0
08.07.2020 09:00:00 14,4 9,0 16,3 18,1 19,9 18,8 8 5 13 7 WSW 1017,8 50 0 0,0
08.07.2020 08:00:00 13,1 8,3 14,3 16,9 20,0 18,8 8 4 11 6 W 1017,9 10 0 0,0
08.07.2020 07:00:00 12,1 7,9 10,8 16,1 20,3 18,8 2 1 6 3 - 1017,9 10 0 0,0
08.07.2020 06:00:00 10,9 7,7 8,1 16,3 20,6 18,8 4 2 5 3 - 1017,9 10 0 0,0
08.07.2020 05:00:00 10,3 7,5 8,0 16,4 21,1 18,8 2 1 5 3 S 1018,1 10 0 0,0
08.07.2020 04:00:00 10,6 6,8 8,0 17,0 21,5 18,8 4 2 5 3 ESE 1018,2 50 0 0,0
08.07.2020 03:00:00 11,8 7,4 8,9 17,7 22,0 18,8 2 1 4 2 - 1018,6 10 0 0,0
08.07.2020 02:00:00 11,6 7,4 7,8 18,4 22,6 18,8 2 1 4 2 - 1019,0 10 0 0,0
08.07.2020 01:00:00 11,9 7,7 8,5 19,3 23,2 18,8 2 1 4 2 SE 1019,1 50 0 0,0
08.07.2020 00:00:00 13,0 7,4 9,2 20,5 23,8 18,8 2 1 4 2 - 1019,2 10 0 0,0
07.07.2020 23:00:00 14,1 6,9 10,1 21,9 24,4 18,8 0 0 8 4 N 1018,9 50 0 0,0
07.07.2020 22:00:00 16,3 6,5 12,1 23,7 25,0 18,8 6 3 13 7 NW 1018,7 60 32 0,0
07.07.2020 21:00:00 18,9 6,7 17,9 25,6 25,5 18,8 11 6 16 9 WNW 1018,3 60 54 0,0
07.07.2020 20:00:00 19,3 5,6 19,1 27,7 25,9 18,9 16 9 24 13 W 1018,2 60 54 0,0
07.07.2020 19:00:00 21,2 6,5 24,4 30,5 25,8 18,9 15 8 24 13 W 1018,0 10 54 0,0
07.07.2020 18:00:00 20,7 6,0 24,2 32,2 25,5 18,9 9 5 26 14 W 1018,6 10 47 0,0
07.07.2020 17:00:00 21,2 5,4 28,0 33,6 24,8 18,9 12 6 26 14 WNW 1019,0 60 60 0,0
07.07.2020 16:00:00 21,3 6,1 29,3 33,3 24,0 18,9 14 7 28 15 WNW 1019,4 60 51 0,0
07.07.2020 15:00:00 21,0 5,3 31,0 32,5 23,0 18,9 10 6 26 14 WSW 1020,0 60 57 0,0
07.07.2020 14:00:00 19,6 5,6 29,1 29,8 22,2 18,9 9 5 21 11 - 1020,6 10 30 0,0
07.07.2020 13:00:00 18,9 4,6 28,4 29,6 21,2 18,9 5 3 20 11 - 1020,9 10 45 0,0
07.07.2020 12:00:00 18,2 5,9 26,4 27,3 20,2 18,9 5 3 16 9 - 1021,3 10 51 0,0
07.07.2020 11:00:00 17,1 6,4 24,2 25,4 19,3 18,9 9 5 16 8 S 1021,5 60 60 0,0
07.07.2020 10:00:00 16,0 6,6 21,3 21,5 18,7 18,9 5 3 16 9 - 1022,2 10 60 0,0
07.07.2020 09:00:00 15,1 7,5 18,8 18,3 18,4 18,9 8 4 15 8 ENE 1022,2 50 60 0,0
07.07.2020 08:00:00 13,4 7,7 16,1 15,6 18,5 18,9 4 2 5 3 - 1022,3 10 60 0,0
07.07.2020 07:00:00 10,5 7,6 11,7 13,5 18,8 18,9 2 1 4 2 SE 1023,0 45 60 0,0
07.07.2020 06:00:00 6,9 5,8 3,5 13,4 19,2 18,9 0 0 4 2 N 1023,4 10 2 0,0
07.07.2020 05:00:00 7,1 5,9 3,7 13,9 19,6 18,9 4 2 5 3 - 1023,4 10 0 0,0
07.07.2020 04:00:00 8,1 6,2 4,3 14,5 20,0 18,8 2 1 15 8 - 1023,3 10 0 0,0
07.07.2020 03:00:00 8,4 6,5 4,5 15,2 20,5 18,9 10 5 13 7 N 1023,3 40 0 0,0
07.07.2020 02:00:00 9,1 7,1 5,1 16,0 21,0 18,9 4 2 9 5 WSW 1023,3 10 0 0,0
07.07.2020 01:00:00 10,4 7,0 5,8 16,9 21,6 18,8 8 4 9 5 NW 1022,9 10 0 0,0
07.07.2020 00:00:00 11,1 7,2 6,9 18,0 22,1 18,9 3 2 11 6 SSW 1022,8 40 0 0,0
06.07.2020 23:00:00 12,6 7,2 7,6 19,3 22,6 18,8 8 4 11 6 NW 1022,4 10 0 0,0
06.07.2020 22:00:00 14,2 6,7 11,2 20,8 23,1 18,8 5 3 21 11 NW 1021,6 40 18 0,0
06.07.2020 21:00:00 16,5 6,9 15,5 22,4 23,5 18,8 8 4 24 13 NW 1020,8 10 46 0,0
06.07.2020 20:00:00 17,7 5,8 17,6 24,1 23,7 18,8 22 12 34 18 WNW 1020,3 10 38 0,0
06.07.2020 19:00:00 17,5 6,9 19,2 25,5 23,7 18,9 18 10 32 17 WNW 1020,1 10 30 0,0
06.07.2020 18:00:00 17,6 6,8 22,5 26,3 23,6 18,8 22 12 40 22 NW 1019,8 50 33 0,0
06.07.2020 17:00:00 18,2 5,7 22,6 27,0 23,3 18,8 26 14 46 25 W 1019,2 10 18 0,0
06.07.2020 16:00:00 18,3 5,7 23,3 28,3 22,9 18,8 26 14 42 23 W 1018,7 10 36 0,0
06.07.2020 15:00:00 17,3 5,0 20,6 27,6 22,4 18,8 23 13 43 23 W 1018,7 40 29 0,0
06.07.2020 14:00:00 16,9 6,4 22,7 26,5 21,8 18,8 22 12 40 21 W 1018,8 40 23 0,0
06.07.2020 13:00:00 16,1 6,2 20,9 26,3 21,1 18,8 26 14 42 23 W 1018,6 10 35 0,0
06.07.2020 12:00:00 16,0 6,6 23,1 23,9 20,6 18,8 26 14 41 22 W 1018,4 10 28 0,0
06.07.2020 11:00:00 15,6 7,1 22,0 21,9 20,2 18,8 26 14 35 19 W 1018,2 40 36 0,0

tt = Température de l'air
td = dewpoint
tt 5cm = Température de l'air 5cm
tt -5cm = Température de l'air -5cm
tt -20cm = Température de l'air -20cm
tt -100cm = Température de l'air -100cm
ff = Vitesse du vent
fx = gusts
dd = Direction du vent
ppp = reduced air pressure
vv = visibility
sd = Ensoleillement
rr = Quantités de précipitations

stations d'obs. à proximité